OK,71,68,702,71,2014-10-01T01:40:00,0,28072029,209854
OK,71,68,702,71,2014-10-01T01:45:00,0,28072472,209854
OK,71,68,702,71,2014-10-01T01:50:00,0,28072921,209854
OK,71,68,702,71,2014-10-01T01:55:00,0,28073368,209854
OK,71,68,702,71,2014-10-01T02:05:00,0,28074134,209854
OK,78,62,702,78,2014-10-01T02:10:00,1,28074583,209854
OK,78,62,702,78,2014-10-01T02:15:00,1,28075023,209854
OK,78,62,702,78,2014-10-01T02:20:00,0,28075472,209854
OK,78,62,702,78,2014-10-01T02:25:00,0,28075921,209854
OK,78,62,702,78,2014-10-01T02:30:00,0,28076304,209854
OK,78,62,702,78,2014-10-01T02:35:00,0,28076753,209854
OK,78,62,702,78,2014-10-01T02:40:00,0,28077202,209854
OK,78,62,702,78,2014-10-01T02:45:00,0,28077651,209854
OK,70,69,702,70,2014-10-01T02:50:00,1,28078054,209854
OK,70,69,702,70,2014-10-01T02:55:00,0,28078503,209854
OK,70,69,702,70,2014-10-01T03:00:00,0,28078948,209854
OK,70,69,702,70,2014-10-01T03:05:00,0,28079396,209854
OK,70,69,702,70,2014-10-01T03:10:00,0,28079839,209854
OK,86,56,702,86,2014-10-01T03:20:00,2,28080622,209854
OK,86,56,702,86,2014-10-01T03:25:00,0,28081071,209854
OK,86,56,702,86,2014-10-01T03:30:00,1,28081520,209854
OK,86,56,702,86,2014-10-01T03:35:00,1,28081967,209854
OK,89,54,702,89,2014-10-01T03:40:00,1,28082416,209854
OK,89,54,702,89,2014-10-01T03:45:00,0,28082849,209854
OK,89,54,702,89,2014-10-01T03:50:00,0,28083281,209854
OK,69,70,702,69,2014-10-01T03:55:00,1,28083730,209854
OK,75,65,702,75,2014-10-01T04:00:00,1,28084179,209854
OK,75,65,702,75,2014-10-01T04:05:00,1,28084620,209854
OK,67,72,702,67,2014-10-01T04:10:00,1,28085045,209854
OK,71,68,702,71,2014-10-01T04:15:00,2,28085494,209854
OK,75,65,702,75,2014-10-01T04:20:00,1,28085939,209854
OK,75,65,702,75,2014-10-01T04:25:00,0,28086388,209854
OK,76,64,702,76,2014-10-01T04:30:00,1,28086830,209854
OK,87,56,702,87,2014-10-01T04:35:00,3,28087279,209854
OK,88,55,702,88,2014-10-01T04:40:00,2,28087724,209854
OK,88,55,702,88,2014-10-01T04:45:00,0,28088173,209854
OK,78,62,702,78,2014-10-01T04:50:00,1,28088597,209854
OK,78,62,702,78,2014-10-01T04:55:00,1,28089046,209854
OK,78,62,702,78,2014-10-01T05:00:00,0,28089476,209854
OK,71,68,702,71,2014-10-01T05:05:00,1,28089925,209854
OK,71,68,702,71,2014-10-01T05:10:00,0,28090374,209854
OK,73,66,702,73,2014-10-01T05:15:00,1,28090718,209854
OK,82,59,702,82,2014-10-01T05:20:00,4,28091167,209854
OK,82,59,702,82,2014-10-01T05:25:00,4,28091616,209854
OK,79,61,702,79,2014-10-01T05:30:00,0,28092033,209854
OK,79,61,702,79,2014-10-01T05:35:00,0,28092482,209854
OK,79,61,702,79,2014-10-01T05:40:00,0,28092926,209854
OK,85,57,702,85,2014-10-01T05:45:00,8,28093367,209854
OK,87,56,702,87,2014-10-01T05:50:00,9,28093798,209854
OK,81,60,702,81,2014-10-01T05:55:00,2,28094247,209854
OK,80,61,702,80,2014-10-01T06:00:00,3,28094658,209854
OK,81,60,702,81,2014-10-01T06:05:00,5,28095103,209854
OK,77,63,702,77,2014-10-01T06:10:00,4,28095550,209854
OK,75,65,702,75,2014-10-01T06:15:00,3,28095999,209854
OK,78,62,702,78,2014-10-01T06:20:00,2,28096412,209854
OK,75,65,702,75,2014-10-01T06:25:00,2,28096861,209854
OK,55,88,702,55,2014-10-01T06:30:00,1,28097295,209854
OK,66,74,702,66,2014-10-01T06:35:00,3,28097744,209854
OK,80,61,702,80,2014-10-01T06:40:00,2,28098193,209854
OK,71,68,702,71,2014-10-01T06:45:00,2,28098630,209854
OK,68,71,702,68,2014-10-01T06:50:00,2,28099074,209854
OK,76,64,702,76,2014-10-01T06:55:00,2,28099522,209854
OK,76,64,702,76,2014-10-01T07:00:00,1,28099865,209854
OK,76,64,702,76,2014-10-01T07:10:00,2,28100621,209854
OK,76,64,702,76,2014-10-01T07:15:00,2,28101069,209854
OK,76,64,702,76,2014-10-01T07:20:00,0,28101441,209854
OK,76,64,702,76,2014-10-01T07:25:00,0,28101890,209854
OK,76,64,702,76,2014-10-01T07:30:00,0,28102326,209854
OK,73,66,702,73,2014-10-01T07:35:00,2,28102775,209854
OK,79,61,702,79,2014-10-01T07:40:00,3,28103202,209854
OK,95,51,702,95,2014-10-01T07:45:00,1,28103649,209854
OK,95,51,702,95,2014-10-01T07:50:00,0,28104094,209854
OK,79,61,702,79,2014-10-01T07:55:00,2,28104539,209854
OK,79,61,702,79,2014-10-01T08:00:00,4,28104980,209854
OK,80,61,702,80,2014-10-01T08:05:00,2,28105425,209854
OK,80,61,702,80,2014-10-01T08:10:00,0,28105865,209854
OK,85,57,702,85,2014-10-01T08:15:00,1,28106314,209854
OK,92,53,702,92,2014-10-01T08:20:00,2,28106751,209854
OK,80,61,702,80,2014-10-01T08:25:00,5,28107157,209854
OK,79,61,702,79,2014-10-01T08:30:00,4,28107589,209854
OK,80,61,702,80,2014-10-01T08:35:00,3,28108038,209854
OK,72,67,702,72,2014-10-01T08:40:00,6,28108477,209854
OK,72,67,702,72,2014-10-01T08:45:00,4,28108926,209854
OK,93,52,702,93,2014-10-01T08:50:00,1,28109354,209854
OK,76,64,702,76,2014-10-01T08:55:00,1,28109798,209854
OK,72,67,702,72,2014-10-01T09:00:00,2,28110146,209854
OK,71,68,702,71,2014-10-01T09:05:00,3,28110595,209854
OK,71,68,702,71,2014-10-01T09:10:00,1,28111018,209854
OK,63,77,702,63,2014-10-01T09:15:00,1,28111467,209854
OK,69,70,702,69,2014-10-01T09:20:00,2,28111896,209854
OK,92,53,702,92,2014-10-01T09:30:00,1,28112686,209854
OK,77,63,702,77,2014-10-01T09:35:00,5,28113135,209854
OK,77,63,702,77,2014-10-01T09:40:00,5,28113559,209854
OK,77,63,702,77,2014-10-01T09:45:00,0,28114008,209854
OK,77,63,702,77,2014-10-01T09:50:00,0,28114440,209854
OK,80,61,702,80,2014-10-01T10:00:00,0,28115243,209854
OK,94,52,702,94,2014-10-01T10:05:00,2,28115692,209854
OK,94,52,702,94,2014-10-01T10:10:00,3,28116104,209854
OK,72,67,702,72,2014-10-01T10:15:00,3,28116553,209854
OK,73,66,702,73,2014-10-01T10:20:00,4,28116961,209854
OK,73,66,702,73,2014-10-01T10:25:00,3,28117410,209854
OK,79,61,702,79,2014-10-01T10:30:00,2,28117835,209854
OK,90,54,702,90,2014-10-01T10:35:00,1,28118284,209854
OK,84,58,702,84,2014-10-01T10:40:00,2,28118729,209854
OK,84,58,702,84,2014-10-01T10:45:00,2,28119176,209854
OK,64,76,702,64,2014-10-01T10:50:00,1,28119620,209854
OK,78,62,702,78,2014-10-01T10:55:00,4,28120068,209854
OK,78,62,702,78,2014-10-01T11:00:00,4,28120516,209854
OK,82,59,702,82,2014-10-01T11:05:00,2,28120965,209854
OK,77,63,702,77,2014-10-01T11:10:00,7,28121348,209854
OK,77,63,702,77,2014-10-01T11:15:00,10,28121797,209854
OK,78,62,702,78,2014-10-01T11:20:00,4,28122235,209854
OK,79,61,702,79,2014-10-01T11:25:00,2,28122684,209854
OK,79,61,702,79,2014-10-01T11:30:00,0,28123125,209854
OK,77,63,702,77,2014-10-01T11:35:00,3,28123574,209854
OK,77,63,702,77,2014-10-01T11:40:00,3,28124006,209854
OK,77,63,702,77,2014-10-01T11:45:00,0,28124455,209854
OK,77,63,702,77,2014-10-01T11:50:00,0,28124857,209854
OK,74,66,702,74,2014-10-01T11:55:00,2,28125306,209854
OK,76,64,702,76,2014-10-01T12:00:00,3,28125735,209854
OK,79,61,702,79,2014-10-01T12:10:00,5,28126536,209854
OK,87,56,702,87,2014-10-01T12:15:00,3,28126985,209854
OK,87,56,702,87,2014-10-01T12:20:00,2,28127434,209854
OK,95,51,702,95,2014-10-01T12:25:00,1,28127883,209854
OK,76,64,702,76,2014-10-01T12:30:00,5,28128311,209854
OK,76,64,702,76,2014-10-01T12:35:00,5,28128760,209854
OK,78,62,702,78,2014-10-01T12:40:00,6,28129195,209854
OK,80,61,702,80,2014-10-01T12:45:00,6,28129644,209854
OK,80,61,702,80,2014-10-01T12:50:00,6,28130078,209854
OK,82,59,702,82,2014-10-01T12:55:00,4,28130527,209854
OK,79,61,702,79,2014-10-01T13:00:00,4,28130955,209854
OK,87,56,702,87,2014-10-01T13:05:00,6,28131404,209854
OK,93,52,702,93,2014-10-01T13:10:00,6,28131841,209854
OK,88,55,702,88,2014-10-01T13:15:00,3,28132290,209854
OK,91,53,702,91,2014-10-01T13:20:00,5,28132728,209854
OK,91,53,702,91,2014-10-01T13:25:00,7,28133175,209854
OK,93,52,702,93,2014-10-01T13:30:00,4,28133613,209854
OK,124,39,702,124,2014-10-01T13:35:00,2,28134062,209854
OK,145,33,702,145,2014-10-01T13:40:00,6,28134501,209854
OK,145,33,702,145,2014-10-01T13:45:00,6,28134950,209854
OK,110,44,702,110,2014-10-01T13:50:00,3,28135369,209854
OK,109,44,702,109,2014-10-01T13:55:00,6,28135818,209854
OK,100,48,702,100,2014-10-01T14:00:00,5,28136255,209854
OK,95,51,702,95,2014-10-01T14:05:00,4,28136704,209854
OK,93,52,702,93,2014-10-01T14:10:00,10,28137144,209854
OK,110,44,702,110,2014-10-01T14:15:00,11,28137593,209854
OK,158,30,702,158,2014-10-01T14:20:00,6,28138027,209854
OK,144,33,702,144,2014-10-01T14:25:00,5,28138476,209854
OK,120,40,702,120,2014-10-01T14:30:00,4,28138904,209854
OK,85,57,702,85,2014-10-01T14:35:00,6,28139353,209854
OK,85,57,702,85,2014-10-01T14:40:00,8,28139764,209854
OK,90,54,702,90,2014-10-01T14:45:00,9,28140213,209854
OK,100,48,702,100,2014-10-01T14:50:00,7,28140655,209854
OK,85,57,702,85,2014-10-01T14:55:00,2,28141103,209854
OK,76,64,702,76,2014-10-01T15:00:00,6,28141530,209854
OK,76,64,702,76,2014-10-01T15:05:00,6,28141979,209854
OK,74,66,702,74,2014-10-01T15:10:00,6,28142407,209854
OK,79,61,702,79,2014-10-01T15:15:00,11,28142856,209854
OK,74,66,702,74,2014-10-01T15:20:00,8,28143283,209854
OK,84,58,702,84,2014-10-01T15:25:00,5,28143732,209854
OK,84,58,702,84,2014-10-01T15:30:00,2,28144180,209854
OK,80,61,702,80,2014-10-01T15:35:00,3,28144629,209854
OK,86,56,702,86,2014-10-01T15:40:00,3,28145050,209854
OK,89,54,702,89,2014-10-01T15:45:00,3,28145464,209854
OK,79,61,702,79,2014-10-01T15:50:00,5,28145913,209854
OK,74,66,702,74,2014-10-01T15:55:00,3,28146362,209854
OK,72,67,702,72,2014-10-01T16:00:00,0,28146811,209854
OK,84,58,702,84,2014-10-01T16:05:00,1,28147219,209854
OK,67,72,702,67,2014-10-01T16:10:00,2,28147663,209854
OK,71,68,702,71,2014-10-01T16:15:00,2,28148112,209854
OK,74,66,702,74,2014-10-01T16:20:00,5,28148513,209854
OK,80,61,702,80,2014-10-01T16:25:00,3,28148962,209854
OK,68,71,702,68,2014-10-01T16:30:00,1,28149401,209854
OK,83,58,702,83,2014-10-01T16:35:00,1,28149850,209854
OK,83,58,702,83,2014-10-01T16:40:00,0,28150276,209854
OK,68,71,702,68,2014-10-01T16:45:00,1,28150725,209854
OK,74,66,702,74,2014-10-01T16:50:00,2,28151143,209854
OK,77,63,702,77,2014-10-01T16:55:00,2,28151592,209854
OK,76,64,702,76,2014-10-01T17:05:00,1,28152041,209854
OK,77,63,702,77,2014-10-01T17:10:00,3,28152490,209854
OK,72,67,702,72,2014-10-01T17:15:00,2,28152936,209854
OK,83,58,702,83,2014-10-01T17:20:00,3,28153383,209854
OK,83,58,702,83,2014-10-01T17:25:00,3,28153832,209854
OK,69,70,702,69,2014-10-01T17:30:00,1,28154242,209854
OK,69,70,702,69,2014-10-01T17:35:00,0,28154691,209854
OK,85,57,702,85,2014-10-01T17:40:00,3,28155133,209854
OK,79,61,702,79,2014-10-01T17:45:00,2,28155581,209854
OK,82,59,702,82,2014-10-01T17:50:00,1,28155999,209854
OK,78,62,702,78,2014-10-01T17:55:00,3,28156448,209854
OK,77,63,702,77,2014-10-01T18:00:00,2,28156896,209854
OK,78,62,702,78,2014-10-01T18:05:00,0,28157335,209854
OK,80,61,702,80,2014-10-01T18:10:00,1,28157765,209854
OK,80,61,702,80,2014-10-01T18:15:00,1,28158213,209854
OK,80,61,702,80,2014-10-01T18:20:00,0,28158657,209854
OK,207,23,702,207,2014-10-01T18:25:00,1,28159102,209854
OK,207,23,702,207,2014-10-01T18:35:00,0,28159884,209854
OK,184,26,702,184,2014-10-01T18:40:00,1,28160333,209854
OK,184,26,702,184,2014-10-01T18:45:00,1,28160782,209854
OK,69,70,702,69,2014-10-01T18:50:00,1,28161220,209854
OK,69,70,702,69,2014-10-01T18:55:00,1,28161669,209854
OK,69,70,702,69,2014-10-01T19:00:00,0,28162086,209854
OK,71,68,702,71,2014-10-01T19:05:00,1,28162535,209854
OK,76,64,702,76,2014-10-01T19:10:00,2,28162929,209854
OK,81,60,702,81,2014-10-01T19:15:00,0,28163368,209854
OK,81,60,702,81,2014-10-01T19:20:00,0,28163816,209854
OK,81,60,702,81,2014-10-01T19:25:00,0,28164265,209854
OK,81,60,702,81,2014-10-01T19:30:00,0,28164696,209854
OK,81,60,702,81,2014-10-01T19:35:00,0,28165145,209854
OK,70,69,702,70,2014-10-01T19:40:00,1,28165570,209854
OK,83,58,702,83,2014-10-01T19:45:00,4,28166018,209854
OK,71,68,702,71,2014-10-01T19:55:00,0,28166821,209854
OK,71,68,702,71,2014-10-01T20:00:00,0,28167270,209854
OK,71,68,702,71,2014-10-01T20:05:00,0,28167698,209854
OK,75,65,702,75,2014-10-01T20:10:00,1,28168132,209854
OK,75,65,702,75,2014-10-01T20:15:00,1,28168581,209854
OK,75,65,702,75,2014-10-01T20:20:00,0,28169026,209854
OK,75,65,702,75,2014-10-01T20:25:00,0,28169475,209854
OK,81,60,702,81,2014-10-01T20:30:00,2,28169923,209854
OK,84,58,702,84,2014-10-01T20:35:00,1,28170349,209854
OK,81,60,702,81,2014-10-01T20:40:00,1,28170794,209854
OK,67,72,702,67,2014-10-01T20:45:00,2,28171242,209854
OK,53,92,702,53,2014-10-01T20:50:00,0,28171679,209854
OK,53,92,702,53,2014-10-01T20:55:00,0,28172125,209854
OK,53,92,702,53,2014-10-01T21:00:00,0,28172573,209854
OK,53,92,702,53,2014-10-01T21:05:00,0,28173019,209854
OK,53,92,702,53,2014-10-01T21:10:00,0,28173465,209854
OK,53,92,702,53,2014-10-01T21:15:00,0,28173914,209854
OK,89,54,702,89,2014-10-01T21:20:00,1,28174355,209854
OK,77,63,702,77,2014-10-01T21:25:00,1,28174804,209854
OK,71,68,702,71,2014-10-01T21:35:00,1,28175626,209854
OK,77,63,702,77,2014-10-01T21:40:00,1,28176075,209854
OK,77,63,702,77,2014-10-01T21:45:00,1,28176524,209854
OK,77,63,702,77,2014-10-01T21:50:00,0,28176973,209854
OK,77,63,702,77,2014-10-01T21:55:00,0,28177329,209854
OK,77,63,702,77,2014-10-01T22:00:00,0,28177769,209854
OK,77,63,702,77,2014-10-01T22:05:00,0,28178215,209854
OK,51,95,702,51,2014-10-01T22:10:00,1,28178664,209854
OK,51,95,702,51,2014-10-01T22:15:00,1,28179111,209854
OK,51,95,702,51,2014-10-01T22:20:00,0,28179545,209854
OK,51,95,702,51,2014-10-01T22:25:00,0,28179988,209854
OK,51,95,702,51,2014-10-01T22:30:00,0,28180435,209854
OK,51,95,702,51,2014-10-01T22:35:00,0,28180833,209854
OK,51,95,702,51,2014-10-01T22:40:00,0,28181282,209854
OK,51,95,702,51,2014-10-01T22:45:00,0,28181706,209854
OK,51,95,702,51,2014-10-01T22:50:00,0,28182154,209854
OK,51,95,702,51,2014-10-01T22:55:00,0,28182601,209854
OK,51,95,702,51,2014-10-01T23:00:00,0,28183050,209854
OK,51,95,702,51,2014-10-01T23:05:00,0,28183464,209854
OK,51,95,702,51,2014-10-01T23:10:00,0,28183900,209854
OK,51,95,702,51,2014-10-01T23:15:00,0,28184345,209854
OK,75,65,702,75,2014-10-01T23:20:00,1,28184794,209854
OK,75,65,702,75,2014-10-01T23:25:00,0,28185229,209854
OK,75,65,702,75,2014-10-01T23:30:00,0,28186058,209854
OK,75,65,702,75,2014-10-01T23:35:00,0,28186500,209854
OK,75,65,702,75,2014-10-01T23:40:00,0,28186911,209854
OK,75,65,702,75,2014-10-01T23:45:00,0,28187340,209854
OK,75,65,702,75,2014-10-01T23:50:00,0,28187789,209854
OK,75,65,702,75,2014-10-01T23:55:00,0,28188232,209854
OK,75,65,702,75,2014-10-02T00:00:00,0,28188667,209854
OK,75,65,702,75,2014-10-02T00:10:00,0,28189115,209854
OK,75,65,702,75,2014-10-02T00:15:00,0,28189564,209854
OK,75,65,702,75,2014-10-02T00:20:00,0,28189986,209854
OK,75,65,702,75,2014-10-02T00:30:00,0,28190788,209854
OK,75,65,702,75,2014-10-02T00:35:00,0,28191237,209854
OK,75,65,702,75,2014-10-02T00:45:00,0,28191992,209854
OK,75,65,702,75,2014-10-02T00:50:00,0,28192441,209854
OK,75,65,702,75,2014-10-02T00:55:00,0,28192874,209854
OK,75,65,702,75,2014-10-02T01:00:00,0,28193685,209854
OK,75,65,702,75,2014-10-02T01:10:00,0,28194134,209854
OK,75,65,702,75,2014-10-02T01:15:00,0,28194583,209854
OK,75,65,702,75,2014-10-02T01:25:00,0,28195268,209854
OK,75,65,702,75,2014-10-02T01:30:00,0,28195717,209854
OK,75,65,702,75,2014-10-02T01:35:00,0,28196166,209854
OK,75,65,702,75,2014-10-02T01:40:00,0,28196450,209854
OK,75,65,702,75,2014-10-02T01:45:00,0,28196899,209854
OK,75,65,702,75,2014-10-02T01:50:00,0,28197322,209854
OK,75,65,702,75,2014-10-02T01:55:00,0,28197771,209854
OK,75,65,702,75,2014-10-02T02:00:00,0,28198219,209854
OK,75,65,702,75,2014-10-02T02:05:00,0,28198667,209854
OK,75,65,702,75,2014-10-02T02:10:00,0,28199116,209854
OK,75,65,702,75,2014-10-02T02:15:00,0,28199488,209854
OK,75,65,702,75,2014-10-02T02:20:00,0,28199930,209854
OK,75,65,702,75,2014-10-02T02:25:00,0,28200372,209854
OK,75,65,702,75,2014-10-02T02:30:00,0,28200815,209854
OK,75,65,702,75,2014-10-02T02:35:00,0,28201264,209854
OK,75,65,702,75,2014-10-02T02:45:00,0,28201695,209854
OK,81,60,702,81,2014-10-02T02:50:00,1,28202144,209854
OK,81,60,702,81,2014-10-02T02:55:00,0,28202593,209854
OK,81,60,702,81,2014-10-02T03:00:00,0,28203035,209854
OK,81,60,702,81,2014-10-02T03:05:00,0,28203483,209854
OK,77,63,702,77,2014-10-02T03:10:00,2,28203918,209854
OK,54,90,702,54,2014-10-02T03:30:00,0,28204367,209854
OK,85,57,702,85,2014-10-02T03:35:00,1,28204816,209854
OK,85,57,702,85,2014-10-02T03:40:00,0,28205265,209854
OK,85,57,702,85,2014-10-02T03:45:00,0,28205693,209854
OK,85,57,702,85,2014-10-02T03:50:00,0,28206120,209854
OK,85,57,702,85,2014-10-02T03:55:00,0,28206523,209854
OK,85,57,702,85,2014-10-02T04:00:00,0,28206972,209854
OK,85,57,702,85,2014-10-02T04:05:00,0,28207421,209854
OK,69,70,702,69,2014-10-02T04:10:00,1,28207840,209854
OK,69,70,702,69,2014-10-02T04:15:00,0,28208289,209854
OK,69,70,702,69,2014-10-02T04:20:00,0,28208716,209854
OK,69,70,702,69,2014-10-02T04:25:00,0,28209165,209854
OK,69,70,702,69,2014-10-02T04:30:00,0,28209603,209854
OK,69,70,702,69,2014-10-02T04:35:00,0,28210052,209854
OK,75,65,702,75,2014-10-02T04:40:00,1,28210475,209854
OK,75,65,702,75,2014-10-02T04:45:00,0,28210924,209854
OK,75,65,702,75,2014-10-02T04:50:00,0,28211349,209854
OK,75,65,702,75,2014-10-02T05:00:00,0,28212171,209854
OK,92,53,702,92,2014-10-02T05:05:00,3,28212620,209854
OK,81,60,702,81,2014-10-02T05:10:00,1,28213049,209854
OK,92,53,702,92,2014-10-02T05:15:00,0,28213498,209854
OK,92,53,702,92,2014-10-02T05:20:00,0,28213936,209854
OK,96,50,702,96,2014-10-02T05:25:00,1,28214385,209854
OK,96,50,702,96,2014-10-02T05:30:00,1,28214798,209854
OK,96,50,702,96,2014-10-02T05:35:00,0,28215247,209854
OK,73,66,702,73,2014-10-02T05:40:00,4,28215663,209854
OK,79,61,702,79,2014-10-02T05:45:00,0,28216112,209854
OK,79,61,702,79,2014-10-02T05:50:00,0,28216451,209854
OK,82,59,702,82,2014-10-02T05:55:00,4,28216891,209854
OK,75,65,702,75,2014-10-02T06:00:00,3,28217338,209854
OK,75,65,702,75,2014-10-02T06:05:00,3,28217787,209854
OK,82,59,702,82,2014-10-02T06:10:00,1,28218226,209854
OK,78,62,702,78,2014-10-02T06:15:00,3,28218675,209854
OK,75,65,702,75,2014-10-02T06:20:00,4,28219095,209854
OK,83,58,702,83,2014-10-02T06:30:00,1,28219917,209854
OK,83,58,702,83,2014-10-02T06:35:00,0,28220366,209854
OK,70,69,702,70,2014-10-02T06:40:00,1,28220800,209854
OK,73,66,702,73,2014-10-02T06:45:00,3,28221249,209854
OK,80,61,702,80,2014-10-02T07:00:00,1,28221916,209854
OK,80,61,702,80,2014-10-02T07:05:00,3,28222061,209854
OK,79,61,702,79,2014-10-02T07:10:00,3,28222510,209854
OK,79,61,702,79,2014-10-02T07:15:00,1,28222959,209854
OK,79,61,702,79,2014-10-02T07:20:00,0,28223390,209854
OK,90,54,702,90,2014-10-02T07:25:00,1,28223825,209854
OK,90,54,702,90,2014-10-02T07:35:00,0,28224628,209854
OK,90,54,702,90,2014-10-02T07:40:00,0,28225077,209854
OK,90,54,702,90,2014-10-02T07:45:00,0,28225487,209854
OK,79,61,702,79,2014-10-02T07:50:00,2,28225848,209854
OK,79,61,702,79,2014-10-02T07:55:00,2,28226297,209854
OK,79,61,702,79,2014-10-02T08:00:00,0,28226738,209854
OK,77,63,702,77,2014-10-02T08:05:00,9,28227187,209854
OK,75,65,702,75,2014-10-02T08:10:00,2,28227602,209854
OK,72,67,702,72,2014-10-02T08:15:00,0,28228049,209854
OK,72,67,702,72,2014-10-02T08:20:00,0,28228410,209854
OK,84,58,702,84,2014-10-02T08:25:00,1,28228859,209854
OK,84,58,702,84,2014-10-02T08:30:00,0,28229269,209854
OK,84,58,702,84,2014-10-02T08:40:00,0,28230068,209854
OK,84,58,702,84,2014-10-02T08:45:00,0,28230517,209854
OK,72,67,702,72,2014-10-02T08:50:00,1,28230883,209854
OK,72,67,702,72,2014-10-02T08:55:00,1,28231330,209854
OK,69,70,702,69,2014-10-02T09:00:00,3,28231755,209854
OK,100,48,702,100,2014-10-02T09:15:00,0,28232546,209854
OK,100,48,702,100,2014-10-02T09:20:00,0,28232995,209854
OK,89,54,702,89,2014-10-02T09:25:00,4,28233444,209854
OK,96,50,702,96,2014-10-02T09:30:00,2,28233868,209854
OK,80,61,702,80,2014-10-02T09:40:00,0,28234650,209854
OK,91,53,702,91,2014-10-02T09:45:00,2,28235099,209854
OK,91,53,702,91,2014-10-02T09:50:00,0,28235526,209854
OK,75,65,702,75,2014-10-02T09:55:00,1,28235975,209854
OK,75,65,702,75,2014-10-02T10:00:00,0,28236418,209854
OK,75,65,702,75,2014-10-02T10:05:00,0,28236865,209854
OK,69,70,702,69,2014-10-02T10:10:00,1,28237267,209854
OK,86,56,702,86,2014-10-02T10:15:00,2,28237715,209854
OK,84,58,702,84,2014-10-02T10:20:00,2,28238164,209854
OK,69,70,702,69,2014-10-02T10:25:00,1,28238611,209854
OK,69,70,702,69,2014-10-02T10:30:00,0,28239052,209854
OK,81,60,702,81,2014-10-02T10:35:00,2,28239501,209854
OK,80,61,702,80,2014-10-02T10:40:00,3,28239931,209854
OK,77,63,702,77,2014-10-02T10:45:00,3,28240380,209854
OK,72,67,702,72,2014-10-02T10:50:00,1,28240824,209854
OK,81,60,702,81,2014-10-02T10:55:00,3,28241273,209854
OK,80,61,702,80,2014-10-02T11:00:00,2,28241705,209854
OK,80,61,702,80,2014-10-02T11:05:00,0,28242153,209854
OK,79,61,702,79,2014-10-02T11:10:00,6,28242549,209854
OK,81,60,702,81,2014-10-02T11:15:00,1,28242998,209854
OK,80,61,702,80,2014-10-02T11:20:00,3,28243447,209854
OK,80,61,702,80,2014-10-02T11:25:00,3,28243772,209854
OK,71,68,702,71,2014-10-02T11:30:00,0,28244210,209854
OK,84,58,702,84,2014-10-02T11:35:00,3,28244639,209854
OK,84,58,702,84,2014-10-02T11:40:00,1,28245088,209854
OK,84,58,702,84,2014-10-02T11:45:00,0,28245537,209854
OK,72,67,702,72,2014-10-02T11:50:00,1,28245943,209854
OK,76,64,702,76,2014-10-02T11:55:00,2,28246392,209854
OK,72,67,702,72,2014-10-02T12:00:00,5,28246829,209854
OK,72,67,702,72,2014-10-02T12:05:00,3,28247277,209854
OK,88,55,702,88,2014-10-02T12:10:00,0,28247724,209854
OK,76,64,702,76,2014-10-02T12:15:00,4,28248154,209854
OK,94,52,702,94,2014-10-02T12:20:00,2,28248603,209854
OK,80,61,702,80,2014-10-02T12:25:00,4,28249050,209854
OK,83,58,702,83,2014-10-02T12:30:00,1,28249478,209854
OK,82,59,702,82,2014-10-02T12:35:00,4,28249922,209854
OK,97,50,702,97,2014-10-02T12:40:00,1,28250306,209854
OK,77,63,702,77,2014-10-02T12:45:00,6,28251074,209854
OK,91,53,702,91,2014-10-02T13:20:00,11,28251599,209854
OK,80,61,702,80,2014-10-02T13:30:00,4,28252064,209854
OK,78,62,702,78,2014-10-02T13:35:00,2,28252201,209854
OK,71,68,702,71,2014-10-02T13:40:00,0,28252648,209854
OK,119,41,702,119,2014-10-02T13:50:00,3,28253507,209854
OK,97,50,702,97,2014-10-02T13:55:00,1,28253956,209854
OK,126,38,702,126,2014-10-02T14:10:00,6,28254687,209854
OK,118,41,702,118,2014-10-02T14:15:00,8,28254810,209854
OK,119,41,702,119,2014-10-02T14:20:00,5,28255259,209854
OK,129,37,702,129,2014-10-02T14:25:00,0,28255708,209854
OK,119,41,702,119,2014-10-02T14:30:00,4,28256136,209854
OK,118,41,702,118,2014-10-02T14:35:00,3,28256585,209854
OK,110,44,702,110,2014-10-02T14:40:00,3,28257013,209854
OK,80,61,702,80,2014-10-02T14:45:00,6,28257462,209854
OK,90,54,702,90,2014-10-02T14:50:00,5,28257903,209854
OK,83,58,702,83,2014-10-02T14:55:00,5,28258351,209854
OK,76,64,702,76,2014-10-02T15:00:00,4,28258784,209854
OK,85,57,702,85,2014-10-02T15:05:00,2,28259230,209854
OK,80,61,702,80,2014-10-02T15:10:00,4,28259678,209854
OK,90,54,702,90,2014-10-02T15:15:00,3,28260126,209854
OK,96,50,702,96,2014-10-02T15:20:00,2,28260559,209854
OK,71,68,702,71,2014-10-02T15:25:00,3,28261006,209854
OK,84,58,702,84,2014-10-02T15:35:00,3,28261811,209854
OK,84,58,702,84,2014-10-02T15:40:00,1,28262260,209854
OK,70,69,702,70,2014-10-02T15:45:00,4,28262707,209854
OK,82,59,702,82,2014-10-02T15:50:00,2,28263153,209854
OK,82,59,702,82,2014-10-02T15:55:00,0,28263591,209854
OK,81,60,702,81,2014-10-02T16:05:00,3,28264434,209854
OK,79,61,702,79,2014-10-02T16:10:00,3,28264883,209854
OK,79,61,702,79,2014-10-02T16:15:00,1,28265321,209854
OK,69,70,702,69,2014-10-02T16:25:00,0,28266157,209854
OK,78,62,702,78,2014-10-02T16:30:00,2,28266606,209854
OK,78,62,702,78,2014-10-02T16:35:00,0,28267378,209854
OK,77,63,702,77,2014-10-02T16:45:00,3,28267827,209854
OK,65,75,702,65,2014-10-02T16:50:00,0,28268276,209854
OK,73,66,702,73,2014-10-02T16:55:00,1,28268718,209854
OK,75,65,702,75,2014-10-02T17:00:00,5,28269167,209854
OK,75,65,702,75,2014-10-02T17:05:00,1,28269616,209854
OK,75,65,702,75,2014-10-02T17:10:00,0,28270051,209854
OK,75,65,702,75,2014-10-02T17:15:00,0,28270500,209854
OK,75,65,702,75,2014-10-02T17:20:00,0,28270934,209854